Ages Brookside, KY

1:29 PM EST on February 07, 2016 (GMT -0500)
Harlan

Weather History for KI35 - January, 2014

Change the Weather History Date:

Thursday, January 16, 2014

  Actual Average (KLOZ) Record (KLOZ)
Temperature  
Mean Temperature 30 °F 35 °F  
Max Temperature 37 °F 45 °F 67 °F (1974)
Min Temperature 23 °F 26 °F -9 °F (1977)
Degree Days  
Heating Degree Days 35 30  
Month to date heating degree days 476  
Since 1 July heating degree days 2128  
Cooling Degree Days 0 0  
Month to date cooling degree days 0  
Year to date cooling degree days 0  
Moisture  
Dew Point 17 °F    
Average Humidity 58    
Maximum Humidity 86    
Minimum Humidity 38    
Precipitation  
Precipitation 0.00 in 0.12 in 0.52 in (2013)
Month to date precipitation 1.83  
Year to date precipitation 1.83  
Sea Level Pressure  
Sea Level Pressure 29.94 in    
Wind  
Wind Speed 3 mph (SSW)    
Max Wind Speed 8 mph    
Max Gust Speed -    
Visibility 10 miles    
Events      
T = Trace of Precipitation, MM = Missing Value Source: NWS Daily Summary

Daily Weather History Graph

Daily Weather History Graph

Search for Another Location

Airport or City:

Trip Planner

Search our weather history database for the weather conditions in past years. The results will help you decide how hot, cold, wet, or windy it might be!

Date:

Astronomy

Jan. 16, 2014 Rise Set
Actual Time 7:45 AM EST 5:41 PM EST
Civil Twilight 7:16 AM EST 6:09 PM EST
Nautical Twilight 6:45 AM EST 6:41 PM EST
Astronomical Twilight 6:13 AM EST 7:12 PM EST
Moon 6:29 PM EST (1/16) 7:40 AM EST (1/16)
Length of Visible Light 10h 53m
Length of Day
9h 56m
Full, 100% of the Moon is Illuminated
Jan 16
Full
Jan 24
Last Quarter
Jan 30
New
Feb 6
First Quarter
Feb 14
Full

Hourly Weather History & Observations

Time (EST) Temp. Windchill Dew Point Humidity Pressure Visibility Wind Dir Wind Speed Gust Speed Precip Events Conditions
12:15 AM 24.8 °F 20.5 °F 17.6 °F 74% 30.03 in 10.0 mi WSW 3.5 mph - N/A   Clear
12:35 AM 24.8 °F 19.1 °F 17.6 °F 74% 30.03 in 10.0 mi WSW 4.6 mph - N/A   Clear
12:55 AM 24.8 °F - 19.4 °F 80% 30.02 in 10.0 mi Calm Calm - N/A   Scattered Clouds
1:15 AM 23.0 °F - 17.6 °F 80% 30.01 in 10.0 mi Calm Calm - N/A   Scattered Clouds
1:35 AM 23.0 °F - 17.6 °F 80% 30.01 in 10.0 mi Calm Calm - N/A   Scattered Clouds
1:55 AM 23.0 °F - 17.6 °F 80% 30.01 in 10.0 mi Calm Calm - N/A   Mostly Cloudy
2:15 AM 23.0 °F - 17.6 °F 80% 30.01 in 10.0 mi Calm Calm - N/A   Overcast
2:35 AM 23.0 °F 17.0 °F 19.4 °F 86% 30.02 in 10.0 mi North 4.6 mph - N/A   Overcast
2:55 AM 24.8 °F 20.5 °F 17.6 °F 74% 30.01 in 10.0 mi NNW 3.5 mph - N/A   Overcast
3:15 AM 24.8 °F - 19.4 °F 80% 30.01 in 10.0 mi Calm Calm - N/A   Overcast
3:35 AM 26.6 °F 20.0 °F 15.8 °F 64% 30.01 in 10.0 mi West 5.8 mph - N/A   Overcast
3:55 AM 26.6 °F 21.2 °F 15.8 °F 64% 30.00 in 10.0 mi NW 4.6 mph - N/A   Overcast
4:15 AM 26.6 °F 21.2 °F 14.0 °F 59% 30.00 in 10.0 mi West 4.6 mph - N/A   Overcast
4:35 AM 24.8 °F 19.1 °F 14.0 °F 64% 29.99 in 10.0 mi West 4.6 mph - N/A   Overcast
4:55 AM 26.6 °F 22.6 °F 15.8 °F 64% 30.00 in 10.0 mi West 3.5 mph - N/A   Overcast
5:15 AM 24.8 °F 19.1 °F 14.0 °F 64% 30.00 in 10.0 mi WNW 4.6 mph - N/A   Overcast
5:35 AM 24.8 °F 19.1 °F 14.0 °F 64% 30.00 in 10.0 mi West 4.6 mph - N/A   Overcast
5:55 AM 24.8 °F 19.1 °F 15.8 °F 69% 29.99 in 10.0 mi West 4.6 mph - N/A   Overcast
6:15 AM 24.8 °F 19.1 °F 15.8 °F 69% 29.99 in 10.0 mi WNW 4.6 mph - N/A   Overcast
6:35 AM 24.8 °F 17.9 °F 15.8 °F 69% 30.00 in 10.0 mi West 5.8 mph - N/A   Overcast
6:55 AM 24.8 °F 20.5 °F 14.0 °F 64% 30.00 in 10.0 mi NW 3.5 mph - N/A   Overcast
7:15 AM 23.0 °F 17.0 °F 15.8 °F 74% 30.01 in 10.0 mi WNW 4.6 mph - N/A   Scattered Clouds
7:35 AM 23.0 °F 18.4 °F 14.0 °F 68% 30.01 in 10.0 mi North 3.5 mph - N/A   Clear
7:55 AM 23.0 °F - 14.0 °F 68% 30.01 in 10.0 mi Calm Calm - N/A   Clear
8:15 AM 23.0 °F - 15.8 °F 74% 30.00 in 10.0 mi Calm Calm - N/A   Clear
8:35 AM 23.0 °F - 17.6 °F 80% 29.99 in 10.0 mi Calm Calm - N/A   Clear
8:55 AM 23.0 °F - 17.6 °F 80% 30.01 in 10.0 mi Calm Calm - N/A   Clear
9:15 AM 26.6 °F - 17.6 °F 69% 30.01 in 10.0 mi Calm Calm - N/A   Clear
9:35 AM 28.4 °F - 17.6 °F 64% 30.02 in 10.0 mi Calm Calm - N/A   Clear
9:55 AM 30.2 °F 26.7 °F 17.6 °F 60% 30.02 in 10.0 mi SE 3.5 mph - N/A   Clear
10:15 AM 30.2 °F 26.7 °F 17.6 °F 60% 30.01 in 10.0 mi ESE 3.5 mph - N/A   Clear
10:35 AM 30.2 °F 26.7 °F 17.6 °F 60% 29.99 in 10.0 mi SE 3.5 mph - N/A   Clear
10:55 AM 32.0 °F - 17.6 °F 55% 29.98 in 10.0 mi Calm Calm - N/A   Clear
11:15 AM 32.0 °F 27.5 °F 17.6 °F 55% 29.97 in 10.0 mi SE 4.6 mph - N/A   Clear
11:55 AM 32.0 °F 25.6 °F 17.6 °F 55% 29.94 in 10.0 mi East 6.9 mph - N/A   Clear
12:15 PM 33.8 °F 29.6 °F 17.6 °F 52% 29.92 in 10.0 mi ESE 4.6 mph - N/A   Clear
12:35 PM 33.8 °F 30.8 °F 17.6 °F 52% 29.92 in 10.0 mi ESE 3.5 mph - N/A   Clear
12:55 PM 35.6 °F 31.7 °F 17.6 °F 48% 29.90 in 10.0 mi SE 4.6 mph - N/A   Clear
1:15 PM 35.6 °F 30.7 °F 17.6 °F 48% 29.89 in 10.0 mi SE 5.8 mph - N/A   Clear
1:35 PM 37.4 °F 32.1 °F 15.8 °F 41% 29.88 in 10.0 mi SE 6.9 mph - N/A   Clear
1:55 PM 35.6 °F 31.7 °F 12.2 °F 38% 29.87 in 10.0 mi SW 4.6 mph - N/A   Mostly Cloudy
2:15 PM 35.6 °F 30.7 °F 14.0 °F 41% 29.87 in 10.0 mi South 5.8 mph - N/A   Overcast
2:35 PM 35.6 °F 29.9 °F 12.2 °F 38% 29.87 in 10.0 mi SW 6.9 mph - N/A   Overcast
2:55 PM 35.6 °F - 14.0 °F 41% 29.86 in 10.0 mi Calm Calm - N/A   Overcast
3:35 PM 35.6 °F 30.7 °F 14.0 °F 41% 29.85 in 10.0 mi SSE 5.8 mph - N/A   Mostly Cloudy
3:55 PM 35.6 °F 29.9 °F 15.8 °F 44% 29.85 in 10.0 mi SE 6.9 mph - N/A   Overcast
4:15 PM 35.6 °F 30.7 °F 14.0 °F 41% 29.85 in 10.0 mi SSE 5.8 mph - N/A   Scattered Clouds
4:35 PM 35.6 °F 29.2 °F 14.0 °F 41% 29.84 in 10.0 mi SE 8.1 mph - N/A   Clear
4:55 PM 33.8 °F 29.6 °F 15.8 °F 48% 29.84 in 10.0 mi ESE 4.6 mph - N/A   Clear
5:15 PM 33.8 °F 28.6 °F 14.0 °F 44% 29.84 in 10.0 mi SSE 5.8 mph - N/A   Scattered Clouds
5:35 PM 33.8 °F 29.6 °F 14.0 °F 44% 29.84 in 10.0 mi South 4.6 mph - N/A   Mostly Cloudy
5:55 PM 33.8 °F - 14.0 °F 44% 29.84 in 10.0 mi Calm Calm - N/A   Overcast
6:15 PM 33.8 °F 29.6 °F 14.0 °F 44% 29.85 in 10.0 mi South 4.6 mph - N/A   Mostly Cloudy
6:35 PM 33.8 °F 27.0 °F 12.2 °F 41% 29.84 in 10.0 mi ESE 8.1 mph - N/A   Overcast
6:55 PM 33.8 °F 29.6 °F 12.2 °F 41% 29.85 in 10.0 mi SE 4.6 mph - N/A   Overcast
7:15 PM 33.8 °F - 12.2 °F 41% 29.86 in 10.0 mi Calm Calm - N/A   Overcast
7:35 PM 33.8 °F - 14.0 °F 44% 29.86 in 10.0 mi Calm Calm - N/A   Overcast
7:55 PM 33.8 °F - 17.6 °F 52% 29.87 in 10.0 mi Calm Calm - N/A   Overcast
8:15 PM 33.8 °F - 17.6 °F 52% 29.87 in 10.0 mi Calm Calm - N/A   Overcast
8:35 PM 33.8 °F - 17.6 °F 52% 29.88 in 10.0 mi Calm Calm - N/A   Overcast
8:55 PM 33.8 °F - 19.4 °F 56% 29.88 in 10.0 mi Calm Calm - N/A   Overcast
9:15 PM 33.8 °F 29.6 °F 19.4 °F 56% 29.90 in 10.0 mi West 4.6 mph - N/A   Overcast
9:35 PM 35.6 °F 31.7 °F 21.2 °F 56% 29.90 in 10.0 mi SW 4.6 mph - N/A   Overcast
9:55 PM 35.6 °F 31.7 °F 21.2 °F 56% 29.90 in 10.0 mi WSW 4.6 mph - N/A   Overcast
10:15 PM 35.6 °F 32.8 °F 21.2 °F 56% 29.91 in 10.0 mi West 3.5 mph - N/A   Overcast
10:35 PM 35.6 °F - 21.2 °F 56% 29.91 in 10.0 mi Calm Calm - N/A   Overcast
10:55 PM 35.6 °F - 21.2 °F 56% 29.90 in 10.0 mi Calm Calm - N/A   Overcast
11:15 PM 35.6 °F 32.8 °F 21.2 °F 56% 29.90 in 10.0 mi SW 3.5 mph - N/A   Overcast
11:35 PM 35.6 °F - 21.2 °F 56% 29.89 in 10.0 mi Calm Calm - N/A   Overcast
11:55 PM 37.4 °F 34.9 °F 19.4 °F 48% 29.88 in 10.0 mi South 3.5 mph - N/A   Overcast